Hourly Weather Giumri

Today, 26 September, Saturday

Time Temperature Precipitation Wind Pressure Humidity
00:00 +15°C° 0.7 mm 2 mps 634 mmHg 81%
01:00 +15°C° 0.1 mm 2 mps 633 mmHg 82%
02:00 +15°C° 0.1 mm 2 mps 633 mmHg 83%
03:00 +14°C° 0 mm 1 mps 633 mmHg 84%
04:00 +14°C° 0.1 mm 1 mps 633 mmHg 84%
05:00 +14°C° 0.1 mm 1 mps 633 mmHg 84%
06:00 +14°C° 0.1 mm 1 mps 633 mmHg 84%
07:00 +15°C° 0.1 mm 1 mps 633 mmHg 78%
08:00 +16°C° 0.1 mm 1 mps 633 mmHg 71%
09:00 +19°C° 0 mm 1 mps 634 mmHg 64%
10:00 +19°C° 0.4 mm 2 mps 634 mmHg 59%
11:00 +20°C° 0.4 mm 2 mps 635 mmHg 54%
12:00 +23°C° 0.4 mm 2 mps 635 mmHg 48%
13:00 +23°C° 0.5 mm 2 mps 635 mmHg 47%
14:00 +23°C° 0.5 mm 2 mps 634 mmHg 45%
15:00 +24°C° 0.5 mm 2 mps 634 mmHg 43%
16:00 +21°C° 0.4 mm 2 mps 634 mmHg 50%
17:00 +20°C° 0.4 mm 2 mps 634 mmHg 57%
18:00 +18°C° 0.4 mm 2 mps 634 mmHg 64%
19:00 +18°C° 0.6 mm 2 mps 634 mmHg 68%
20:00 +17°C° 0.6 mm 2 mps 634 mmHg 72%
21:00 +17°C° 0.6 mm 2 mps 634 mmHg 75%
22:00 +16°C° 0 mm 2 mps 634 mmHg 77%
23:00 +15°C° 0 mm 1 mps 634 mmHg 78%

Tomorrow, 27 September, Sunday

Time Temperature Precipitation Wind Pressure Humidity
00:00 +15°C° 0 mm 1 mps 634 mmHg 79%
01:00 +15°C° 0 mm 1 mps 634 mmHg 79%
02:00 +14°C° 0 mm 1 mps 634 mmHg 80%
03:00 +14°C° 0 mm 1 mps 634 mmHg 80%
04:00 +14°C° 0 mm 1 mps 634 mmHg 80%
05:00 +13°C° 0 mm 1 mps 634 mmHg 80%
06:00 +13°C° 0 mm 1 mps 634 mmHg 80%
07:00 +15°C° 0 mm 1 mps 635 mmHg 73%
08:00 +18°C° 0 mm 1 mps 636 mmHg 66%
09:00 +18°C° 0 mm 0 mps 637 mmHg 58%
10:00 +21°C° 0 mm 1 mps 637 mmHg 53%
11:00 +22°C° 0 mm 1 mps 638 mmHg 48%
12:00 +24°C° 0 mm 2 mps 638 mmHg 43%
13:00 +24°C° 0 mm 2 mps 638 mmHg 41%
14:00 +24°C° 0 mm 2 mps 638 mmHg 38%
15:00 +25°C° 0 mm 2 mps 638 mmHg 36%
16:00 +23°C° 0 mm 2 mps 638 mmHg 45%
17:00 +21°C° 0 mm 3 mps 638 mmHg 53%
18:00 +19°C° 0 mm 3 mps 637 mmHg 61%
19:00 +18°C° 0 mm 3 mps 638 mmHg 66%
20:00 +17°C° 0 mm 3 mps 638 mmHg 71%
21:00 +16°C° 0 mm 2 mps 638 mmHg 76%
22:00 +15°C° 0 mm 2 mps 638 mmHg 77%
23:00 +15°C° 0 mm 2 mps 638 mmHg 78%

Day after tomorrow, 28 September, Monday

Time Temperature Precipitation Wind Pressure Humidity
00:00 +15°C° 0 mm 2 mps 639 mmHg 79%
01:00 +14°C° 0 mm 2 mps 638 mmHg 80%
02:00 +14°C° 0 mm 2 mps 638 mmHg 81%
03:00 +13°C° 0 mm 2 mps 638 mmHg 81%
04:00 +13°C° 0 mm 2 mps 638 mmHg 81%
05:00 +13°C° 0 mm 1 mps 638 mmHg 81%
06:00 +13°C° 0 mm 1 mps 638 mmHg 81%
07:00 +14°C° 0 mm 1 mps 639 mmHg 73%
08:00 +16°C° 0 mm 1 mps 640 mmHg 64%
09:00 +19°C° 0 mm 1 mps 640 mmHg 56%
10:00 +20°C° 0 mm 1 mps 640 mmHg 51%
11:00 +21°C° 0 mm 2 mps 641 mmHg 46%
12:00 +23°C° 0 mm 2 mps 641 mmHg 41%
13:00 +23°C° 0 mm 2 mps 640 mmHg 41%
14:00 +22°C° 0 mm 3 mps 640 mmHg 42%
15:00 +24°C° 0 mm 3 mps 640 mmHg 43%
16:00 +21°C° 0 mm 3 mps 640 mmHg 51%
17:00 +19°C° 0 mm 3 mps 639 mmHg 59%
18:00 +17°C° 0 mm 3 mps 639 mmHg 67%
19:00 +16°C° 0 mm 3 mps 639 mmHg 70%
20:00 +14°C° 0 mm 3 mps 639 mmHg 74%
21:00 +13°C° 0 mm 3 mps 639 mmHg 77%
22:00 +13°C° 0 mm 3 mps 639 mmHg 78%
23:00 +12°C° 0 mm 3 mps 638 mmHg 79%

29 September, Tuesday

Time Temperature Precipitation Wind Pressure Humidity
00:00 +11°C° 0 mm 3 mps 638 mmHg 80%
01:00 +12°C° 0 mm 2 mps 638 mmHg 81%
02:00 +12°C° 0 mm 2 mps 638 mmHg 81%
03:00 +10°C° 0 mm 2 mps 638 mmHg 82%
04:00 +10°C° 0 mm 2 mps 638 mmHg 82%
05:00 +10°C° 0 mm 2 mps 638 mmHg 83%
06:00 +10°C° 0 mm 2 mps 638 mmHg 83%
07:00 +12°C° 0 mm 1 mps 638 mmHg 75%
08:00 +14°C° 0 mm 1 mps 638 mmHg 68%
09:00 +16°C° 0 mm 1 mps 639 mmHg 60%
10:00 +18°C° 0 mm 1 mps 639 mmHg 55%
11:00 +20°C° 0 mm 1 mps 639 mmHg 51%
12:00 +22°C° 0 mm 1 mps 639 mmHg 46%
13:00 +21°C° 0 mm 2 mps 639 mmHg 45%
14:00 +21°C° 0 mm 2 mps 639 mmHg 44%
15:00 +23°C° 0 mm 2 mps 638 mmHg 43%
16:00 +20°C° 0 mm 2 mps 638 mmHg 50%
17:00 +18°C° 0 mm 2 mps 637 mmHg 58%
18:00 +17°C° 0 mm 2 mps 637 mmHg 65%
19:00 +16°C° 0 mm 2 mps 636 mmHg 69%
20:00 +15°C° 0 mm 2 mps 636 mmHg 73%
21:00 +14°C° 0 mm 2 mps 636 mmHg 77%
22:00 +13°C° 0 mm 2 mps 636 mmHg 78%
23:00 +13°C° 0 mm 2 mps 636 mmHg 78%

30 September, Wednesday

Time Temperature Precipitation Wind Pressure Humidity
00:00 +12°C° 0 mm 2 mps 635 mmHg 79%
01:00 +12°C° 0 mm 2 mps 635 mmHg 79%
02:00 +10°C° 0 mm 2 mps 634 mmHg 79%
03:00 +11°C° 0 mm 1 mps 634 mmHg 79%
04:00 +11°C° 0 mm 1 mps 634 mmHg 80%
05:00 +11°C° 0 mm 1 mps 634 mmHg 80%
06:00 +10°C° 0 mm 1 mps 634 mmHg 81%
07:00 +12°C° 0 mm 1 mps 634 mmHg 73%
08:00 +14°C° 0 mm 1 mps 634 mmHg 66%
09:00 +16°C° 0 mm 1 mps 635 mmHg 58%
10:00 +19°C° 0 mm 1 mps 635 mmHg 54%
11:00 +19°C° 0 mm 2 mps 635 mmHg 49%
12:00 +20°C° 0 mm 2 mps 635 mmHg 45%
13:00 +21°C° 0 mm 2 mps 635 mmHg 43%
14:00 +21°C° 0 mm 2 mps 634 mmHg 41%
15:00 +23°C° 0 mm 2 mps 634 mmHg 40%
16:00 +20°C° 0.1 mm 2 mps 634 mmHg 48%
17:00 +18°C° 0.1 mm 2 mps 633 mmHg 55%
18:00 +16°C° 0.1 mm 2 mps 632 mmHg 63%
19:00 +16°C° 0.1 mm 2 mps 633 mmHg 67%
20:00 +15°C° 0.1 mm 2 mps 633 mmHg 71%
21:00 +14°C° 0.1 mm 2 mps 633 mmHg 75%
22:00 +14°C° 0.1 mm 2 mps 633 mmHg 75%
23:00 +14°C° 0.1 mm 2 mps 633 mmHg 76%

1 October, Thursday

Time Temperature Precipitation Wind Pressure Humidity
00:00 +13°C° 0.1 mm 2 mps 633 mmHg 76%
01:00 +13°C° 0 mm 2 mps 633 mmHg 78%
02:00 +12°C° 0 mm 2 mps 632 mmHg 80%
03:00 +12°C° 0 mm 2 mps 632 mmHg 81%
04:00 +12°C° 0 mm 2 mps 632 mmHg 82%
05:00 +10°C° 0 mm 2 mps 632 mmHg 82%
06:00 +10°C° 0 mm 2 mps 632 mmHg 83%
07:00 +13°C° 0 mm 2 mps 633 mmHg 75%
08:00 +14°C° 0 mm 1 mps 633 mmHg 67%
09:00 +16°C° 0 mm 1 mps 634 mmHg 59%
10:00 +17°C° 0.1 mm 2 mps 634 mmHg 55%
11:00 +19°C° 0.1 mm 2 mps 634 mmHg 50%
12:00 +20°C° 0.1 mm 2 mps 634 mmHg 45%
13:00 +21°C° 0 mm 2 mps 634 mmHg 44%
14:00 +21°C° 0 mm 2 mps 634 mmHg 43%
15:00 +23°C° 0 mm 2 mps 634 mmHg 41%
16:00 +20°C° 0 mm 2 mps 634 mmHg 49%
17:00 +19°C° 0 mm 2 mps 633 mmHg 56%
18:00 +17°C° 0 mm 2 mps 633 mmHg 63%
19:00 +16°C° 0 mm 2 mps 633 mmHg 66%
20:00 +15°C° 0 mm 2 mps 633 mmHg 70%
21:00 +15°C° 0 mm 2 mps 633 mmHg 73%
22:00 +14°C° 0.1 mm 2 mps 633 mmHg 74%
23:00 +14°C° 0.1 mm 2 mps 633 mmHg 75%
Show more